Location: Abraham Lincoln Continuation High School
(33.9711°N, 117.3662°W)
Time: 03:44:50
(UTC+00:00)

ARIANE 5 R/B - Pass Details

Date: 21 September 2020
Orbit: 748 x 796 km, 98.6° (Epoch: 25 October)

Event Time Altitude Azimuth Distance (km) Brightness Sun altitude
Rises 10:48:58 0° 10° (N) 3,239 6.2 -34.4°
Reaches altitude 10° 10:51:18 10° 8° (N) 2,302 5.3 -34.0°
Enters shadow 10:53:00 22° 5° (N) 1,642 4.4 -33.7°
